KLM644 KJFK-EHAM

Flight info

Callsign KLM644
Flight time N/A
Altitude 35000
Route MERIT DCT HFD DCT PUT DCT WITCH DCT ALLEX N535B UMESI/M085F350 DCT 5130N05000W 5330N04000W 5430N03000W 5430N02000W DCT NEBIN DCT OLGON/N0487F350 DCT LIFFY DCT DOLAS L603 LAMSO
Aircraft B77W/H-SDE1E2E3FGHIJ2J3J4J5M1RWXY/LB1D1

Departure

Time 2026-05-08 06:37
Airport John F. Kennedy International Airport (KJFK)

Arrival

Time N/A
Airport Amsterdam Airport Schiphol (EHAM)
Time Latitude Longitude Altitude Speed Heading
2026-05-08 06:19 40.64217 -73.77859 28 ft 0 kts
2026-05-08 06:26 40.64205 -73.77860 28 ft 2 kts
2026-05-08 06:26 40.64191 -73.77863 28 ft 2 kts
2026-05-08 06:27 40.64176 -73.77866 28 ft 2 kts
2026-05-08 06:27 40.64161 -73.77868 28 ft 2 kts
2026-05-08 06:27 40.64146 -73.77871 28 ft 2 kts
2026-05-08 06:27 40.64131 -73.77873 28 ft 2 kts
2026-05-08 06:28 40.64117 -73.77876 28 ft 2 kts 13°
2026-05-08 06:28 40.64103 -73.77884 28 ft 2 kts 40°
2026-05-08 06:28 40.64093 -73.77898 28 ft 2 kts 62°
2026-05-08 06:28 40.64088 -73.77917 28 ft 2 kts 83°
2026-05-08 06:29 40.64089 -73.77937 28 ft 2 kts 104°
2026-05-08 06:29 40.64095 -73.77955 28 ft 2 kts 126°
2026-05-08 06:29 40.64105 -73.77969 28 ft 1 kts 147°
2026-05-08 06:29 40.64110 -73.77972 28 ft 0 kts 150°
2026-05-08 06:32 40.64109 -73.77972 28 ft 0 kts 150°
2026-05-08 06:33 40.64081 -73.77952 28 ft 9 kts 154°
2026-05-08 06:33 40.63988 -73.77947 28 ft 17 kts 176°
2026-05-08 06:33 40.63851 -73.77927 28 ft 22 kts 173°
2026-05-08 06:33 40.63694 -73.77902 28 ft 21 kts 173°
2026-05-08 06:34 40.63561 -73.77831 28 ft 20 kts 127°
2026-05-08 06:34 40.63477 -73.77738 28 ft 15 kts 194°
2026-05-08 06:34 40.63377 -73.77809 28 ft 16 kts 211°
2026-05-08 06:34 40.63287 -73.77760 28 ft 17 kts 121°
2026-05-08 06:35 40.63223 -73.77617 28 ft 18 kts 120°
2026-05-08 06:35 40.63155 -73.77465 28 ft 19 kts 120°
2026-05-08 06:35 40.63085 -73.77310 28 ft 14 kts 129°
2026-05-08 06:35 40.62994 -73.77322 28 ft 15 kts 210°
2026-05-08 06:36 40.62909 -73.77405 28 ft 14 kts 255°
2026-05-08 06:36 40.62958 -73.77531 28 ft 20 kts 302°
2026-05-08 06:36 40.63090 -73.77817 28 ft 65 kts 300°
2026-05-08 06:36 40.63434 -73.78584 28 ft 127 kts 301°
2026-05-08 06:37 40.63986 -73.79801 82 ft 174 kts 302°
2026-05-08 06:37 40.64634 -73.81192 580 ft 181 kts 301°
2026-05-08 06:37 40.65003 -73.82812 1224 ft 190 kts 270°
2026-05-08 06:37 40.64595 -73.84516 1538 ft 209 kts 236°
2026-05-08 06:38 40.63411 -73.85787 1804 ft 231 kts 212°
2026-05-08 06:38 40.61980 -73.86809 2390 ft 237 kts 211°
2026-05-08 06:38 40.60509 -73.87826 3072 ft 240 kts 210°
2026-05-08 06:38 40.58982 -73.88880 3477 ft 255 kts 210°
2026-05-08 06:39 40.57247 -73.89544 4009 ft 268 kts 183°
2026-05-08 06:39 40.55407 -73.89078 4662 ft 274 kts 160°
2026-05-08 06:39 40.53678 -73.88047 5379 ft 276 kts 149°
2026-05-08 06:39 40.52299 -73.86291 5976 ft 283 kts 123°
2026-05-08 06:40 40.51347 -73.84029 6663 ft 284 kts 118°
2026-05-08 06:40 40.50462 -73.81705 7232 ft 290 kts 117°
2026-05-08 06:40 40.49568 -73.79311 7870 ft 293 kts 117°
2026-05-08 06:40 40.48740 -73.76866 8456 ft 298 kts 106°
2026-05-08 06:41 40.48573 -73.74139 8912 ft 306 kts 79°
2026-05-08 06:41 40.49326 -73.71537 9409 ft 305 kts 52°
2026-05-08 06:41 40.50837 -73.69621 9878 ft 301 kts 25°
2026-05-08 06:41 40.52685 -73.68353 10336 ft 307 kts 20°
2026-05-08 06:42 40.54669 -73.67102 10589 ft 323 kts 20°
2026-05-08 06:42 40.56761 -73.65791 10858 ft 340 kts 20°
2026-05-08 06:42 40.58949 -73.64419 11175 ft 355 kts 20°
2026-05-08 06:42 40.61223 -73.62990 11513 ft 370 kts 20°
2026-05-08 06:43 40.63578 -73.61507 11913 ft 384 kts 21°
2026-05-08 06:43 40.66034 -73.59956 12546 ft 391 kts 20°
2026-05-08 06:43 40.68502 -73.58396 13314 ft 396 kts 20°
2026-05-08 06:43 40.70984 -73.56825 14139 ft 400 kts 20°
2026-05-08 06:44 40.73508 -73.55227 14880 ft 407 kts 20°
2026-05-08 06:44 40.76108 -73.53580 15618 ft 415 kts 19°
2026-05-08 06:44 40.78719 -73.51925 16347 ft 423 kts 19°
2026-05-08 06:44 40.81365 -73.50246 17061 ft 430 kts 19°
2026-05-08 06:45 40.84108 -73.48503 17794 ft 438 kts 19°
2026-05-08 06:45 40.86871 -73.46747 18516 ft 445 kts 19°
2026-05-08 06:45 40.89679 -73.44959 19208 ft 452 kts 18°
2026-05-08 06:45 40.92489 -73.43168 19910 ft 458 kts 18°
2026-05-08 06:46 40.95403 -73.41310 20546 ft 465 kts 18°
2026-05-08 06:46 40.98349 -73.39429 21198 ft 472 kts 18°
2026-05-08 06:46 41.01318 -73.37531 21761 ft 480 kts 18°
2026-05-08 06:46 41.04308 -73.35617 22437 ft 484 kts 18°
2026-05-08 06:47 41.07344 -73.33671 23029 ft 490 kts 18°
2026-05-08 06:47 41.10438 -73.31686 23492 ft 499 kts 18°
2026-05-08 06:47 41.13569 -73.29675 24012 ft 505 kts 18°
2026-05-08 06:47 41.16760 -73.27621 24596 ft 510 kts 18°
2026-05-08 06:48 41.19934 -73.25575 25190 ft 513 kts 18°
2026-05-08 06:48 41.23156 -73.23495 25844 ft 516 kts 18°
2026-05-08 06:48 41.26384 -73.21407 26430 ft 519 kts 18°
2026-05-08 06:48 41.29629 -73.19308 27004 ft 523 kts 18°
2026-05-08 06:49 41.32867 -73.17123 27463 ft 533 kts 22°
2026-05-08 06:49 41.35972 -73.14361 27971 ft 547 kts 31°
2026-05-08 06:49 41.38863 -73.10945 28398 ft 561 kts 40°
2026-05-08 06:49 41.41383 -73.07004 28907 ft 571 kts 50°
2026-05-08 06:50 41.43525 -73.02550 29531 ft 575 kts 57°
2026-05-08 06:50 41.45493 -72.97940 30221 ft 574 kts 58°
2026-05-08 06:50 41.47469 -72.93295 30932 ft 571 kts 58°
2026-05-08 06:50 41.49431 -72.88707 31671 ft 567 kts 58°
2026-05-08 06:51 41.51408 -72.84113 32276 ft 564 kts 57°
2026-05-08 06:51 41.53384 -72.79532 32810 ft 561 kts 58°
2026-05-08 06:51 41.55338 -72.75017 33283 ft 560 kts 57°
2026-05-08 06:51 41.57278 -72.70541 33769 ft 558 kts 58°
2026-05-08 06:52 41.59221 -72.66061 34217 ft 558 kts 58°
2026-05-08 06:52 41.61180 -72.61546 34625 ft 558 kts 57°
2026-05-08 06:52 41.63139 -72.57031 34854 ft 561 kts 57°
2026-05-08 06:52 41.65109 -72.52515 34865 ft 569 kts 57°
2026-05-08 06:53 41.69225 -72.43379 34868 ft 576 kts 57°
2026-05-08 06:53 41.73346 -72.34230 34876 ft 574 kts 57°
2026-05-08 06:54 41.77459 -72.25069 34852 ft 576 kts 58°
2026-05-08 06:54 41.81564 -72.15891 34857 ft 577 kts 57°
2026-05-08 06:55 41.85668 -72.06686 34864 ft 577 kts 58°
2026-05-08 06:55 41.89769 -71.97457 34856 ft 577 kts 58°
2026-05-08 06:56 41.93864 -71.88243 34851 ft 576 kts 56°
2026-05-08 06:56 41.98898 -71.80012 34874 ft 571 kts 41°
2026-05-08 06:57 42.04620 -71.72520 34859 ft 570 kts 40°
2026-05-08 06:57 42.10318 -71.65073 34864 ft 570 kts 40°
2026-05-08 06:58 42.15987 -71.57636 34852 ft 569 kts 40°
2026-05-08 06:58 42.21656 -71.50177 34864 ft 570 kts 40°
2026-05-08 06:59 42.27344 -71.42670 34855 ft 570 kts 40°
2026-05-08 06:59 42.33033 -71.35139 34850 ft 571 kts 40°
2026-05-08 07:00 42.38699 -71.27620 34840 ft 572 kts 41°
2026-05-08 07:00 42.44333 -71.20119 34841 ft 571 kts 41°
2026-05-08 07:01 42.49976 -71.12589 34839 ft 570 kts 42°
2026-05-08 07:01 42.55605 -71.05056 34828 ft 571 kts 42°
2026-05-08 07:02 42.61230 -70.97508 34841 ft 572 kts 41°
2026-05-08 07:02 42.66845 -70.89886 34841 ft 572 kts 45°
2026-05-08 07:03 42.71561 -70.81138 34842 ft 577 kts 56°
2026-05-08 07:03 42.75899 -70.72031 34842 ft 574 kts 56°
2026-05-08 07:04 42.80229 -70.62896 34839 ft 575 kts 56°
2026-05-08 07:04 42.84547 -70.53754 34832 ft 574 kts 56°
2026-05-08 07:05 42.88860 -70.44595 34828 ft 573 kts 57°
2026-05-08 07:05 42.93156 -70.35443 34829 ft 574 kts 57°
2026-05-08 07:06 42.97411 -70.26350 34828 ft 573 kts 58°
2026-05-08 07:06 43.01691 -70.17174 34830 ft 572 kts 58°
2026-05-08 07:07 43.05934 -70.08050 34817 ft 573 kts 58°
2026-05-08 07:07 43.10195 -69.98859 34816 ft 572 kts 58°
2026-05-08 07:08 43.14433 -69.89690 34808 ft 571 kts 58°
2026-05-08 07:08 43.18659 -69.80517 34837 ft 573 kts 58°
2026-05-08 07:09 43.22883 -69.71320 34821 ft 571 kts 58°
2026-05-08 07:09 43.27114 -69.62078 34799 ft 571 kts 58°
2026-05-08 07:10 43.31312 -69.52880 34826 ft 572 kts 58°
2026-05-08 07:10 43.35503 -69.43668 34819 ft 570 kts 58°
2026-05-08 07:11 43.39689 -69.34438 34790 ft 572 kts 59°
2026-05-08 07:11 43.43886 -69.25155 34785 ft 571 kts 59°
2026-05-08 07:12 43.48040 -69.15938 34808 ft 572 kts 60°
2026-05-08 07:12 43.52235 -69.06599 34801 ft 572 kts 60°
2026-05-08 07:13 43.56376 -68.97352 34783 ft 572 kts 60°
2026-05-08 07:13 43.60529 -68.88049 34790 ft 572 kts 60°
2026-05-08 07:14 43.64691 -68.78696 34801 ft 571 kts 60°
2026-05-08 07:14 43.68825 -68.69376 34791 ft 570 kts 60°
2026-05-08 07:15 43.72942 -68.60062 34786 ft 571 kts 60°
2026-05-08 07:15 43.77075 -68.50684 34776 ft 571 kts 60°
2026-05-08 07:16 43.81170 -68.41362 34795 ft 571 kts 60°
2026-05-08 07:16 43.85291 -68.31950 34786 ft 571 kts 61°
2026-05-08 07:17 43.89371 -68.22601 34779 ft 569 kts 61°
2026-05-08 07:17 43.93461 -68.13199 34780 ft 570 kts 62°
2026-05-08 07:18 43.97517 -68.03845 34795 ft 569 kts 61°
2026-05-08 07:18 44.01575 -67.94456 34781 ft 568 kts 61°
2026-05-08 07:19 44.05624 -67.85055 34791 ft 571 kts 62°
2026-05-08 07:19 44.09673 -67.75625 34787 ft 570 kts 61°
2026-05-08 07:20 44.13736 -67.66132 34778 ft 570 kts 62°
2026-05-08 07:20 44.17749 -67.56724 34764 ft 570 kts 62°
2026-05-08 07:21 44.21789 -67.47221 34767 ft 570 kts 62°
2026-05-08 07:21 44.25816 -67.37717 34761 ft 572 kts 62°
2026-05-08 07:22 44.29830 -67.28213 34746 ft 572 kts 63°
2026-05-08 07:22 44.33846 -67.18672 34736 ft 572 kts 63°
2026-05-08 07:23 44.37856 -67.09114 34741 ft 570 kts 63°
2026-05-08 07:23 44.41920 -66.99580 34734 ft 573 kts 58°
2026-05-08 07:24 44.46791 -66.90815 34745 ft 575 kts 53°
2026-05-08 07:24 44.51786 -66.82117 34733 ft 574 kts 53°
2026-05-08 07:25 44.56764 -66.73388 34750 ft 575 kts 53°
2026-05-08 07:26 44.64213 -66.60238 34751 ft 574 kts 53°
2026-05-08 07:26 44.69149 -66.51476 34742 ft 573 kts 53°
2026-05-08 07:27 44.74043 -66.42760 34747 ft 573 kts 54°
2026-05-08 07:27 44.79004 -66.33891 34743 ft 575 kts 54°
2026-05-08 07:28 44.83904 -66.25107 34728 ft 571 kts 55°
2026-05-08 07:28 44.88777 -66.16337 34735 ft 574 kts 55°
2026-05-08 07:29 44.93693 -66.07466 34746 ft 573 kts 55°
2026-05-08 07:29 44.98579 -65.98621 34737 ft 572 kts 55°
2026-05-08 07:30 45.03474 -65.89732 34727 ft 573 kts 55°
2026-05-08 07:30 45.08339 -65.80868 34736 ft 573 kts 55°
2026-05-08 07:31 45.13188 -65.72008 34712 ft 573 kts 55°
2026-05-08 07:31 45.18064 -65.63068 34715 ft 576 kts 55°
2026-05-08 07:32 45.22954 -65.54076 34723 ft 574 kts 55°
2026-05-08 07:32 45.27811 -65.45116 34719 ft 574 kts 56°
2026-05-08 07:33 45.32659 -65.36144 34704 ft 575 kts 56°
2026-05-08 07:33 45.37551 -65.27062 34686 ft 576 kts 56°
2026-05-08 07:34 45.42424 -65.17987 34684 ft 577 kts 57°
2026-05-08 07:34 45.47247 -65.08978 34692 ft 575 kts 57°
2026-05-08 07:35 45.52085 -64.99908 34704 ft 575 kts 57°
2026-05-08 07:35 45.56890 -64.90874 34693 ft 576 kts 57°
2026-05-08 07:36 45.61737 -64.81728 34685 ft 579 kts 57°
2026-05-08 07:36 45.66557 -64.72609 34683 ft 576 kts 57°
2026-05-08 07:37 45.71382 -64.63447 34676 ft 579 kts 57°
2026-05-08 07:37 45.76217 -64.54236 34691 ft 580 kts 57°
2026-05-08 07:38 45.81022 -64.45054 34689 ft 579 kts 57°
2026-05-08 07:38 45.85862 -64.35774 34692 ft 581 kts 57°
2026-05-08 07:39 45.90674 -64.26517 34686 ft 582 kts 58°
2026-05-08 07:39 45.95495 -64.17213 34689 ft 583 kts 58°
2026-05-08 07:40 46.00279 -64.07950 34682 ft 583 kts 58°
2026-05-08 07:40 46.05123 -63.98537 34691 ft 583 kts 58°
2026-05-08 07:41 46.09896 -63.89238 34697 ft 581 kts 58°
2026-05-08 07:41 46.14700 -63.79840 34668 ft 582 kts 59°
2026-05-08 07:42 46.19495 -63.70431 34656 ft 583 kts 58°
2026-05-08 07:42 46.24285 -63.61001 34660 ft 582 kts 59°
2026-05-08 07:43 46.29027 -63.51631 34663 ft 584 kts 58°
2026-05-08 07:43 46.33808 -63.42154 34664 ft 583 kts 59°
2026-05-08 07:44 46.38543 -63.32739 34665 ft 581 kts 60°
2026-05-08 07:44 46.43343 -63.23158 34670 ft 584 kts 60°
2026-05-08 07:45 46.48128 -63.13575 34675 ft 587 kts 60°
2026-05-08 07:45 46.52877 -63.04032 34673 ft 586 kts 60°
2026-05-08 07:46 46.57653 -62.94403 34666 ft 588 kts 60°
2026-05-08 07:46 46.62400 -62.84799 34668 ft 587 kts 60°
2026-05-08 07:47 46.67148 -62.75159 34667 ft 587 kts 60°
2026-05-08 07:47 46.71899 -62.65478 34671 ft 590 kts 60°
2026-05-08 07:48 46.76618 -62.55832 34673 ft 588 kts 60°
2026-05-08 07:48 46.81352 -62.46121 34673 ft 587 kts 60°
2026-05-08 07:49 46.86079 -62.36387 34675 ft 591 kts 60°
2026-05-08 07:49 46.90823 -62.26588 34667 ft 589 kts 61°
2026-05-08 07:50 46.95530 -62.16833 34667 ft 586 kts 62°
2026-05-08 07:50 47.00280 -62.06945 34672 ft 590 kts 61°
2026-05-08 07:51 47.04962 -61.97173 34673 ft 586 kts 62°
2026-05-08 07:51 47.09605 -61.87441 34681 ft 588 kts 61°
2026-05-08 07:52 47.14294 -61.77580 34663 ft 587 kts 62°
2026-05-08 07:52 47.18920 -61.67822 34669 ft 586 kts 62°
2026-05-08 07:53 47.23566 -61.57976 34670 ft 589 kts 61°
2026-05-08 07:53 47.28249 -61.48023 34675 ft 589 kts 62°
2026-05-08 07:54 47.32870 -61.38167 34679 ft 591 kts 62°
2026-05-08 07:54 47.37529 -61.28196 34667 ft 587 kts 62°
2026-05-08 07:55 47.42162 -61.18237 34668 ft 591 kts 63°
2026-05-08 07:55 47.46767 -61.08314 34671 ft 586 kts 62°
2026-05-08 07:56 47.51356 -60.98376 34662 ft 590 kts 62°
2026-05-08 07:56 47.55998 -60.88296 34670 ft 588 kts 62°
2026-05-08 07:57 47.60584 -60.78296 34670 ft 592 kts 63°
2026-05-08 07:57 47.65190 -60.68220 34671 ft 591 kts 63°
2026-05-08 07:58 47.69765 -60.58174 34668 ft 591 kts 63°
2026-05-08 07:58 47.74385 -60.47989 34670 ft 592 kts 63°
2026-05-08 07:59 47.78961 -60.37864 34672 ft 594 kts 63°
2026-05-08 07:59 47.83547 -60.27683 34668 ft 591 kts 64°
2026-05-08 08:00 47.88099 -60.17532 34680 ft 599 kts 64°
2026-05-08 08:00 47.92713 -60.07216 34687 ft 591 kts 64°
2026-05-08 08:01 47.97261 -59.96999 34693 ft 598 kts 64°
2026-05-08 08:01 48.01802 -59.86767 34693 ft 589 kts 64°
2026-05-08 08:02 48.06367 -59.76432 34695 ft 596 kts 64°
2026-05-08 08:02 48.10914 -59.66106 34681 ft 595 kts 63°
2026-05-08 08:03 48.15477 -59.55702 34667 ft 595 kts 64°
2026-05-08 08:03 48.19999 -59.45351 34669 ft 594 kts 63°
2026-05-08 08:04 48.24505 -59.34998 34672 ft 596 kts 63°
2026-05-08 08:04 48.29008 -59.24617 34664 ft 594 kts 64°
2026-05-08 08:05 48.33499 -59.14215 34659 ft 594 kts 64°
2026-05-08 08:05 48.37997 -59.03757 34664 ft 599 kts 64°
2026-05-08 08:06 48.42458 -58.93358 34669 ft 593 kts 63°
2026-05-08 08:06 48.46948 -58.82836 34660 ft 593 kts 64°
2026-05-08 08:07 48.51408 -58.72349 34661 ft 598 kts 64°
2026-05-08 08:07 48.55839 -58.61889 34660 ft 593 kts 63°
2026-05-08 08:08 48.60287 -58.51350 34658 ft 592 kts 64°
2026-05-08 08:08 48.64677 -58.40904 34655 ft 592 kts 63°
2026-05-08 08:09 48.69074 -58.30405 34640 ft 589 kts 64°
2026-05-08 08:09 48.73479 -58.19837 34636 ft 593 kts 64°
2026-05-08 08:10 48.77832 -58.09362 34625 ft 589 kts 64°
2026-05-08 08:10 48.82200 -57.98804 34628 ft 588 kts 64°
2026-05-08 08:11 48.86540 -57.88277 34630 ft 587 kts 64°
2026-05-08 08:11 48.90824 -57.77840 34638 ft 588 kts 64°
2026-05-08 08:12 48.95137 -57.67293 34642 ft 587 kts 64°
2026-05-08 08:12 48.99436 -57.56735 34645 ft 591 kts 64°
2026-05-08 08:13 49.03760 -57.46075 34646 ft 589 kts 63°
2026-05-08 08:13 49.08097 -57.35340 34653 ft 591 kts 63°
2026-05-08 08:14 49.12374 -57.24718 34618 ft 586 kts 65°
2026-05-08 08:14 49.16635 -57.14083 34618 ft 592 kts 64°
2026-05-08 08:15 49.20908 -57.03380 34612 ft 589 kts 64°
2026-05-08 08:15 49.25171 -56.92659 34602 ft 592 kts 64°
2026-05-08 08:16 49.29415 -56.81943 34612 ft 589 kts 64°
2026-05-08 08:16 49.33636 -56.71242 34616 ft 587 kts 64°
2026-05-08 08:17 49.37810 -56.60618 34618 ft 585 kts 64°
2026-05-08 08:17 49.42029 -56.49829 34627 ft 587 kts 63°
2026-05-08 08:18 49.46227 -56.39053 34624 ft 588 kts 64°
2026-05-08 08:18 49.50379 -56.28355 34618 ft 586 kts 65°
2026-05-08 08:19 49.54544 -56.17579 34618 ft 583 kts 65°
2026-05-08 08:19 49.58646 -56.06922 34630 ft 580 kts 65°
2026-05-08 08:20 49.62748 -55.96218 34634 ft 581 kts 65°
2026-05-08 08:20 49.66818 -55.85555 34629 ft 579 kts 65°
2026-05-08 08:21 49.70899 -55.74819 34632 ft 579 kts 64°
2026-05-08 08:21 49.74956 -55.64104 34640 ft 581 kts 64°
2026-05-08 08:22 49.79001 -55.53376 34643 ft 579 kts 65°
2026-05-08 08:22 49.83043 -55.42610 34640 ft 579 kts 64°
2026-05-08 08:23 49.87085 -55.31800 34644 ft 581 kts 65°